Location: Newark
(32.8014°N, 52.8711°E)
Time: 06:25:22
(UTC+00:00)

Envisat - Pass Details

Date: 27 January 2020
Orbit: 764 x 766 km, 98.1° (Epoch: 27 February)

Event Time Altitude Azimuth Distance (km) Brightness Sun altitude
Rises 01:41:45 0° 40° (NE) 3,233 6.7 -22.1°
Reaches altitude 10° 01:46:08 10° 76° (ENE) 2,300 6.4 -21.2°
Maximum altitude 01:47:26 11° 92° (E) 2,234 6.5 -21.0°
Drops below altitude 10° 01:48:44 10° 107° (ESE) 2,296 6.6 -20.7°
Sets 01:53:04 0° 143° (SE) 3,215 7.0 -19.8°
